TimeEST,TemperatureF,Dew PointF,Humidity,Sea Level PressureIn,VisibilityMPH,Wind Direction,Wind SpeedMPH,Gust SpeedMPH,PrecipitationIn,Events,Conditions,WindDirDegrees,DateUTC
12:15 AM,27.9,16.9,63,30.44,10.0,NNE,4.6,-,N/A,,Clear,30,2013-12-25 05:15:00
12:35 AM,27.3,16.5,64,30.44,10.0,NNE,4.6,-,N/A,,Clear,30,2013-12-25 05:35:00
12:55 AM,26.8,16.3,65,30.44,10.0,NE,5.8,-,N/A,,Clear,50,2013-12-25 05:55:00
1:15 AM,26.8,15.6,63,30.43,10.0,NNE,4.6,-,N/A,,Clear,30,2013-12-25 06:15:00
1:35 AM,26.2,15.6,64,30.42,10.0,NE,3.5,-,N/A,,Clear,40,2013-12-25 06:35:00
1:55 AM,26.8,15.3,62,30.43,10.0,NNE,6.9,-,N/A,,Clear,30,2013-12-25 06:55:00
2:15 AM,26.2,15.1,63,30.44,10.0,NNE,8.1,-,N/A,,Clear,30,2013-12-25 07:15:00
2:35 AM,25.7,14.9,64,30.44,10.0,NNE,5.8,-,N/A,,Clear,30,2013-12-25 07:35:00
2:55 AM,25.5,14.9,64,30.43,10.0,NNE,6.9,-,N/A,,Clear,20,2013-12-25 07:55:00
3:15 AM,25.0,14.7,65,30.44,10.0,North,6.9,-,N/A,,Clear,10,2013-12-25 08:15:00
3:35 AM,24.8,14.5,65,30.44,10.0,NNE,5.8,-,N/A,,Clear,30,2013-12-25 08:35:00
3:55 AM,24.4,14.5,66,30.44,10.0,NE,4.6,-,N/A,,Clear,40,2013-12-25 08:55:00
4:15 AM,23.7,14.2,67,30.44,10.0,NNE,5.8,-,N/A,,Clear,20,2013-12-25 09:15:00
4:35 AM,23.5,14.4,68,30.44,10.0,NNE,5.8,-,N/A,,Clear,30,2013-12-25 09:35:00
4:55 AM,22.6,14.0,69,30.44,10.0,NNE,4.6,-,N/A,,Clear,30,2013-12-25 09:55:00
5:15 AM,22.6,14.0,69,30.44,10.0,NNE,4.6,-,N/A,,Clear,30,2013-12-25 10:15:00
5:35 AM,22.5,14.2,71,30.44,10.0,NNE,5.8,-,N/A,,Clear,30,2013-12-25 10:35:00
5:55 AM,22.8,14.0,69,30.46,10.0,NNE,4.6,-,N/A,,Clear,20,2013-12-25 10:55:00
6:15 AM,22.3,14.0,71,30.46,10.0,NNE,4.6,-,N/A,,Clear,30,2013-12-25 11:15:00
6:35 AM,22.5,14.0,70,30.47,10.0,Calm,Calm,-,N/A,,Clear,0,2013-12-25 11:35:00
6:55 AM,22.1,13.6,70,30.48,10.0,NNE,3.5,-,N/A,,Clear,20,2013-12-25 11:55:00
7:15 AM,22.1,13.6,70,30.49,10.0,North,3.5,-,N/A,,Clear,10,2013-12-25 12:15:00
7:35 AM,21.9,13.8,71,30.49,10.0,Calm,Calm,-,N/A,,Clear,0,2013-12-25 12:35:00
7:55 AM,21.7,14.9,75,30.51,10.0,Calm,Calm,-,N/A,,Clear,0,2013-12-25 12:55:00
8:15 AM,23.2,14.7,70,30.52,10.0,NNE,3.5,-,N/A,,Clear,20,2013-12-25 13:15:00
8:35 AM,24.4,15.1,68,30.52,10.0,NE,3.5,-,N/A,,Clear,40,2013-12-25 13:35:00
8:55 AM,25.7,14.7,63,30.53,10.0,NE,3.5,-,N/A,,Clear,40,2013-12-25 13:55:00
9:15 AM,27.1,14.4,59,30.53,10.0,NE,3.5,-,N/A,,Clear,50,2013-12-25 14:15:00
9:35 AM,28.6,12.9,52,30.53,10.0,NE,4.6,-,N/A,,Clear,40,2013-12-25 14:35:00
9:55 AM,30.2,9.5,42,30.53,10.0,NE,6.9,-,N/A,,Clear,50,2013-12-25 14:55:00
10:15 AM,30.6,9.5,41,30.54,10.0,East,4.6,-,N/A,,Clear,90,2013-12-25 15:15:00
10:35 AM,31.6,8.8,38,30.53,10.0,East,5.8,-,N/A,,Clear,80,2013-12-25 15:35:00
10:55 AM,32.0,7.5,36,30.52,10.0,ESE,3.5,-,N/A,,Clear,110,2013-12-25 15:55:00
11:15 AM,32.0,9.0,38,30.52,10.0,East,6.9,-,N/A,,Clear,80,2013-12-25 16:15:00
11:35 AM,32.7,9.5,38,30.51,10.0,Calm,Calm,-,N/A,,Clear,0,2013-12-25 16:35:00
11:55 AM,33.1,9.0,37,30.50,10.0,ENE,4.6,-,N/A,,Clear,60,2013-12-25 16:55:00
12:15 PM,33.8,8.8,35,30.49,10.0,Calm,Calm,-,N/A,,Clear,0,2013-12-25 17:15:00
12:35 PM,35.6,8.6,33,30.46,10.0,ENE,5.8,-,N/A,,Clear,70,2013-12-25 17:35:00
12:55 PM,35.6,9.0,33,30.45,10.0,ESE,3.5,-,N/A,,Clear,110,2013-12-25 17:55:00
1:15 PM,35.1,8.2,33,30.44,10.0,Calm,Calm,-,N/A,,Clear,0,2013-12-25 18:15:00
1:35 PM,35.8,8.6,32,30.43,10.0,SW,3.5,-,N/A,,Clear,220,2013-12-25 18:35:00
1:55 PM,37.0,8.8,31,30.42,10.0,NNE,3.5,-,N/A,,Clear,30,2013-12-25 18:55:00
2:15 PM,37.2,7.3,29,30.41,10.0,Calm,Calm,-,N/A,,Clear,0,2013-12-25 19:15:00
2:35 PM,38.3,7.9,28,30.41,10.0,Calm,Calm,-,N/A,,Clear,0,2013-12-25 19:35:00
2:55 PM,37.6,7.7,29,30.41,10.0,Calm,Calm,-,N/A,,Clear,0,2013-12-25 19:55:00
3:15 PM,38.8,8.2,28,30.40,10.0,Calm,Calm,-,N/A,,Clear,0,2013-12-25 20:15:00
3:35 PM,38.1,7.9,29,30.40,10.0,Calm,Calm,-,N/A,,Clear,0,2013-12-25 20:35:00
3:55 PM,38.3,6.8,27,30.40,10.0,Calm,Calm,-,N/A,,Clear,0,2013-12-25 20:55:00
4:15 PM,38.3,7.3,28,30.39,10.0,Calm,Calm,-,N/A,,Clear,0,2013-12-25 21:15:00
4:35 PM,38.3,9.0,30,30.40,10.0,Calm,Calm,-,N/A,,Clear,0,2013-12-25 21:35:00
4:55 PM,37.6,8.2,30,30.40,10.0,Calm,Calm,-,N/A,,Clear,0,2013-12-25 21:55:00
5:15 PM,37.4,8.8,31,30.39,10.0,Calm,Calm,-,N/A,,Clear,0,2013-12-25 22:15:00
5:35 PM,35.6,8.2,32,30.39,10.0,Calm,Calm,-,N/A,,Clear,0,2013-12-25 22:35:00
5:55 PM,35.6,7.5,31,30.39,10.0,Calm,Calm,-,N/A,,Clear,0,2013-12-25 22:55:00
6:15 PM,34.5,8.4,34,30.39,10.0,Calm,Calm,-,N/A,,Clear,0,2013-12-25 23:15:00
6:35 PM,34.7,7.9,33,30.39,10.0,Calm,Calm,-,N/A,,Clear,0,2013-12-25 23:35:00
6:55 PM,33.4,8.6,35,30.39,10.0,Calm,Calm,-,N/A,,Clear,0,2013-12-25 23:55:00
7:15 PM,33.1,8.8,36,30.39,10.0,Calm,Calm,-,N/A,,Clear,0,2013-12-26 00:15:00
7:35 PM,30.0,12.6,48,30.39,10.0,NE,3.5,-,N/A,,Clear,40,2013-12-26 00:35:00
7:55 PM,31.1,12.4,46,30.39,10.0,NE,3.5,-,N/A,,Clear,40,2013-12-26 00:55:00
8:15 PM,29.3,12.7,50,30.39,10.0,NNE,3.5,-,N/A,,Clear,20,2013-12-26 01:15:00
8:35 PM,27.7,16.5,63,30.40,10.0,Calm,Calm,-,N/A,,Clear,0,2013-12-26 01:35:00
8:55 PM,29.1,13.6,52,30.40,10.0,Calm,Calm,-,N/A,,Clear,0,2013-12-26 01:55:00
9:15 PM,28.4,14.2,55,30.40,10.0,NNE,3.5,-,N/A,,Scattered Clouds,30,2013-12-26 02:15:00
9:35 PM,29.1,14.9,55,30.39,10.0,NE,3.5,-,N/A,,Mostly Cloudy,40,2013-12-26 02:35:00
9:55 PM,28.0,18.0,66,30.39,10.0,Calm,Calm,-,N/A,,Overcast,0,2013-12-26 02:55:00
10:15 PM,27.9,19.2,70,30.39,10.0,North,3.5,-,N/A,,Overcast,10,2013-12-26 03:15:00
10:35 PM,28.8,18.7,66,30.40,10.0,Calm,Calm,-,N/A,,Overcast,0,2013-12-26 03:35:00
10:55 PM,28.6,19.6,69,30.40,10.0,Calm,Calm,-,N/A,,Overcast,0,2013-12-26 03:55:00
11:15 PM,28.8,18.7,66,30.40,10.0,Calm,Calm,-,N/A,,Overcast,0,2013-12-26 04:15:00
11:35 PM,29.3,18.5,64,30.39,10.0,Calm,Calm,-,N/A,,Overcast,0,2013-12-26 04:35:00
11:55 PM,29.3,22.8,77,30.37,10.0,Calm,Calm,-,N/A,,Overcast,0,2013-12-26 04:55:00